Flag for Germany Weather past 2 weeks in Waldkraiburg, Bavaria, Germany

Now
72 °F

Passing clouds.


Feels Like: 76 °F
Forecast: 53 / 79 °F
Wind: 5 mph from South

Location: Muenchen Flughafen

Current Time: Aug 2, 2015 at 8:44:21 PM

Latest Report: Aug 2, 2015 at 8:00 PM


Visibility: 25 mi

Pressure: 30.06 "Hg

Humidity: 60%

Dew point: 57 °F

Location of WaldkraiburgLocation

Historic Weather in Waldkraiburg — Graph

°F

Waldkraiburg temperature yesterday

Maximum temperature yesterday: 71 °F (at 12:00 PM)
Minimum temperature yesterday: 54 °F (at 5:00 AM)
Average temperature yesterday: 63 °F

Past Weeks' High & Low Weather Summary

 TemperatureHumidityPressure
High93 °F (Jul 22, 4:00 PM)98% (Jul 19, 2:00 AM)30.12 "Hg (Jul 19, 2:00 AM)
Low45 °F (Jul 30, 5:00 AM)26% (Jul 22, 5:00 PM)29.68 "Hg (Jul 27, 3:00 PM)
Average69 °F63%29.91 "Hg
* Reported Jul 18 7:00 PM — Aug 2 7:00 PM, Waldkraiburg, Weather by CustomWeather, © 2015

Note: Actual official high and low records may vary slightly from our data, if they occured in-between our weather recording intervals... More about our weather records

Advertising

Waldkraiburg weather history for previous 24 hours

 ConditionsComfort  
Time TempWeatherWind HumidityBarometerVisibility
7:00 PM
Sun, Aug 2
75 °FPassing clouds.3 mph49%30.04 "Hg25 mi
6:00 PM75 °FPassing clouds.3 mph49%30.05 "Hg28 mi
5:00 PM75 °FPassing clouds.3 mph49%30.06 "Hg25 mi
4:00 PM75 °FScattered clouds.2 mph51%30.06 "Hg19 mi
3:00 PM73 °FScattered clouds.3 mph52%30.08 "Hg19 mi
2:00 PM71 °FPartly sunny.3 mph61%30.09 "Hg16 mi
1:00 PM68 °FOvercast.5 mph72%30.11 "Hg16 mi
12:00 PM65 °FOvercast.5 mph79%30.12 "Hg12 mi
11:00 AM64 °FOvercast.3 mph84%30.11 "Hg14 mi
10:00 AM63 °FOvercast.2 mph87%30.10 "Hg12 mi
9:00 AM62 °FOvercast.2 mph92%30.09 "Hg12 mi
8:00 AM62 °FLight rain. Overcast.2 mph92%30.08 "Hg12 mi
7:00 AM61 °FOvercast.3 mph94%30.06 "Hg12 mi
5:00 AM60 °FLight rain. Overcast.2 mph92%30.05 "Hg16 mi
4:00 AM60 °FLight rain. Overcast.2 mph89%30.05 "Hg16 mi
1:00 AM59 °FOvercast.2 mph87%30.05 "Hg22 mi
11:00 PM
Sat, Aug 1
62 °FOvercast.2 mph74%30.02 "Hg22 mi
10:00 PM65 °FOvercast.1 mph65%30.01 "Hg22 mi
9:00 PM66 °FOvercast.2 mph63%29.97 "Hg22 mi
8:00 PM67 °FOvercast.2 mph58%29.96 "Hg22 mi
Weather by CustomWeather, © 2015

See weather overviewHow to use our weather pages